Location: Dal�� Lhota
(48.7500°N, 14.0167°E)
Time: 09:09:46
(UTC+00:00)

Explorer 7 - Pass Details

Date: 07 August 2021
Orbit: 484 x 676 km, 50.3° (Epoch: 21 September)

Event Time Altitude Azimuth Distance (km) Brightness Sun altitude
Rises 04:01:15 0° 265° (W) 2,551 9.6 1.5°
Reaches altitude 10° 04:03:24 10° 267° (W) 1,681 8.7 1.8°
Maximum altitude 04:07:11 73° 352° (N) 530 6.9 2.4°
Drops below altitude 10° 04:11:08 10° 78° (ENE) 1,753 11.6 3.0°
Sets 04:13:24 0° 81° (E) 2,672 12.5 3.3°
